User: anonymous   Login
Location: Caltech
(34.1382°N, 118.1253°W)
Time: 05:55:59
(UTC-07:00)
Language:

SPOT 1/Viking Rocket - Orbit

View from above orbital plane
View from above orbital plane
View from above satellite
View from above satellite

Ground track
Ground track

The orbit data is extracted from the following two-line orbital elements,

1 16615U 86019C   17265.80569007 +.00000046 +00000-0 +33600-4 0  9995
2 16615 098.6029 332.2171 0012874 116.3953 355.7053 14.31672408653383
Epoch (UTC): 22 September 2017 19:20:11
Eccentricity: 0.0012874
inclination: 98.6029°
perigee height: 777 km
apogee height: 795 km
right ascension of ascending node: 332.2171°
argument of perigee: 116.3953°
revolutions per day: 14.31672408
mean anomaly at epoch: 355.7053°
orbit number at epoch: 65338

The dashed part of the orbit path shows where the satellite is in the earth's shadow,  

DLR